Location: Feigenhofen
(48.4939°N, 10.7793°E)
Time: 15:13:12
(UTC+00:00)

IRS-1D - Pass Details

Date: 26 May 2022
Orbit: 740 x 816 km, 98.7° (Epoch: 28 June)

Event Time Altitude Azimuth Distance (km) Brightness Sun altitude
Rises 01:54:30 0° 16° (NNE) 3,355 8.2 -11.7°
Reaches altitude 10° 01:56:53 10° 19° (NNE) 2,417 7.3 -11.5°
Maximum altitude 02:02:14 70° 103° (ESE) 865 3.9 -10.9°
Drops below altitude 10° 02:07:29 10° 187° (S) 2,372 5.5 -10.3°
Enters shadow 02:07:55 - 187° (S) 2,546 5.7 -10.3°
